NOAA 16 DEB, 41134

Orbit data source: Space-Track

NOAA 16 DEB, 41134 is space debris in SSO originally from a launch on Thu, 21 Sep 2000 UTC launched from the Air Force Western Test Range (AFWTR). Debris objects in space refer to the collection of defunct objects orbiting the Earth. Examples of debris include non-operational satellites, rocket bodies, and fragments generated from explosions, collisions, or faulty payload assembly.

Loading next visibility...
Identifier
41134, 2000-055BR
Orbit
SSO
Country
Flag of USUS
Related business
Manufacturer
Unknown
Mission
Spacecraft
Bus & Motor
Unknown
Mass
Unknown
Launch date (UTC)
2000-09-21 (25 years ago)
Launch vehicle
Unknown
Launch site
Air Force Western Test Range (AFWTR)
Object type
Payload
Rocket body
Debris
Shape & HBR
Unknown shape, 0.1 m
Radar Cross Section
Small (<0.1 m²)

Expand to show TLE details & history
Last TLE update: 16 hours ago

TLE from 16 hours ago
0 NOAA 16 DEB
1 41134U 00055BR  25300.33931125  .00002493  00000-0  12722-2 0  9994
2 41134  98.6421 337.5271 0028401  90.6878 269.7551 14.16350858508724
Epoch: 2025-10-27T08:08Z
TLE epoch observation values (Epoch: 2025-10-27T08:08:36.491Z)
Latitude
-0°
Longitude
179.43248°
Altitude
840.778 km
Speed
7.432 km/s
True Right ascension
22h 30m 06s
True Declination
0° 00' 00"
Sunlit
Object was in full shadow at epoch
Visualization orbit readout
Latitude
Unknown
Longitude
Unknown
Altitude
Unknown
Speed
Unknown
Apparent Right ascension
Unknown
Apparent Declination
Unknown
Sunlit
N/A
Visualization observer readout
Local Sidereal Time
19:15:52
Azimuth
Unknown
Elevation
Unknown
Doppler factor
Unknown
Orbital elements
Apogee altitude
855.366 km
Perigee altitude
814.395 km
Semi-major axis
7,213.018 km
Eccentricity
0.00284
Inclination
98.6421°
RAAN
337.5271°
Arg. of periapsis
90.6878°
True anomaly
269.42966°
Mean anomaly
269.7551°
Eccentric anomaly
269.59238°
Mean motion
3.54297 °/min
Orbital period
101.61 mins
BSTAR
0.0012722
Loading maneuver chart data...
Computing Atmospheric mass density...
Loading historical data...
Loading historical data...
Loading historical data...
Loading historical data...
Loading historical data...
Loading historical data...
Loading historical data...

Documentation

Showing up to 5 results
|